This demonstration page uses our WeatherBlox Daily Observations layout. Learn more.

Left ArrowRight Arrow

Hourly Observations for June 4, 2020

Temp ( °F °C ) Dew Point ( °F °C ) Humidity (%) Winds ( mph kmh ) Pressure ( in mb ) Visibility ( mi km ) Precip ( " mm )
12:53 am 00:53 Clear 82 27.8 59 15 46 46 SSE 12 19 29.78 1008 10 16 0.00 0.00
1:53 am 01:53 Clear 79 26.1 60 15.6 52 52 SSE 9 15 29.78 1008 10 16 0.00 0.00
2:53 am 02:53 Clear 77 25 60 15.6 56 56 SSE 8 13 29.76 1008 10 16 0.00 0.00
3:53 am 03:53 Clear 75 23.9 61 16.1 62 62 SE 8 13 29.75 1008 10 16 0.00 0.00
4:53 am 04:53 Clear 74 23.3 61 16.1 64 64 SSE 7 11 29.76 1008 10 16 0.00 0.00
5:53 am 05:53 Clear 72 22.2 61 16.1 68 68 SE 6 9 29.77 1008 10 16 0.00 0.00
6:53 am 06:53 Sunny 72 22.2 61 16.1 68 68 ESE 8 13 29.78 1008 10 16 0.00 0.00
7:53 am 07:53 Sunny 74 23.3 62 16.7 67 67 SE 14 22 29.79 1009 10 16 0.00 0.00
8:53 am 08:53 Sunny 78 25.6 63 17.2 60 60 SE 13 20 29.80 1009 10 16 0.00 0.00
9:53 am 09:53 Sunny 83 28.3 63 17.2 51 51 SSW 9 15 29.80 1009 10 16 0.00 0.00
10:53 am 10:53 Sunny 87 30.6 60 15.6 40 40 SSE 14 22 29.80 1009 10 16 0.00 0.00
11:53 am 11:53 Sunny 91 32.8 59 15 34 34 SSE 14 22 29.78 1008 10 16 0.00 0.00
12:53 pm 12:53 Sunny 95 35 56 13.3 27 27 S 13 20 29.76 1008 10 16 0.00 0.00
1:53 pm 13:53 Sunny 97 36.1 54 12.2 24 24 S 8 13 29.74 1007 10 16 0.00 0.00
2:53 pm 14:53 Sunny 100 37.8 52 11.1 20 20 SE 13 20 29.72 1006 10 16 0.00 0.00
3:53 pm 15:53 Sunny 101 38.3 51 10.6 19 19 SSE 9 15 29.70 1006 10 16 0.00 0.00
4:53 pm 16:53 Sunny 101 38.3 52 11.1 19 19 SSE 14 22 29.67 1005 10 16 0.00 0.00
5:53 pm 17:53 Sunny 101 38.3 51 10.6 19 19 S 10 17 29.66 1004 10 16 0.00 0.00
6:53 pm 18:53 Sunny 100 37.8 51 10.6 19 19 S 13 20 29.65 1004 10 16 0.00 0.00
7:53 pm 19:53 Sunny 97 36.1 52 11.1 22 22 SE 15 24 29.65 1004 10 16 0.00 0.00
8:53 pm 20:53 Sunny 95 35 53 11.7 24 24 SSE 20 31 29.65 1004 10 16 0.00 0.00
9:53 pm 21:53 Clear 91 32.8 53 11.7 27 27 SSE 16 26 29.66 1005 10 16 0.00 0.00
10:53 pm 22:53 Clear 89 31.7 54 12.2 30 30 SSE 17 28 29.69 1006 10 16 0.00 0.00
11:53 pm 23:53 Clear 86 30 56 13.3 36 36 SSE 14 22 29.72 1006 10 16 0.00 0.00

Powered by AerisWeather